Other Public Products
Issued by NWS Grand Forks, ND

Home | Current Version | Previous Version | Graphics & Text | Print | Product List | Glossary On
Versions: 1 2 3 4 5 6 7 8 9 10 11 12 13 14 15 16 17 18 19 20 21 22 23 24 25 26 27 28 29 30 31 32 33 34 35 36 37 38 39 40 41 42 43 44 45 46 47 48 49 50
000
FPUS83 KFGF 280731
OPUFGF
PRAIRIE TO PINES WEATHER ROUNDUP
NATIONAL WEATHER SERVICE EASTERN NORTH DAKOTA/GRAND FORKS ND
200 AM CDT THU JUL 28 2016

 **SATELLITE DATA USED TO AUGMENT SKY COVER AT AUTOMATED STATIONS**
 *****  WEATHER ACROSS EASTERN NORTH DAKOTA  *****

CITY           SKY/WX    TMP DP  RH WIND       PRES   REMARKS
GRAND FORKS    CLOUDY    61  57  87 N7        30.09S
GRAND FORKS AF CLOUDY    63  57  82 N8        30.11R
GRAND CITY NWS   N/A     59 N/A N/A VRB3        N/A
BUXTON           N/A     62  61  98 N3          N/A
DEVILS LAKE    PTCLDY    57  54  89 NE5       30.16S
FARGO          CLOUDY    63  59  87 N7        30.06S
WAHPETON ARPT  CLOUDY    63  57  82 N5        30.06R
$$

 *****  WEATHER ACROSS CENTRAL AND WESTERN NORTH DAKOTA  *****

CITY           SKY/WX    TMP DP  RH WIND       PRES   REMARKS
JAMESTOWN      PTCLDY    60  56  86 NE6       30.12S
BISMARCK       LGT RAIN  65  61  87 CALM      30.14S
MINOT          CLOUDY    65  57  75 NE6       30.15S
MINOT AFB      CLOUDY    62  55  78 E9        30.15R
GARRISON         N/A     63  62  97 NE3       30.15S
WILLISTON      CLOUDY    65  59  81 NE3       30.16S
DICKINSON      MOCLDY    59  57  93 E6        30.12F
HETTINGER      PTCLDY    62  58  86 E9        30.12F
$$

 *****  OTHER OBSERVATIONS NORTHEAST NORTH DAKOTA  *****

CITY           SKY/WX    TMP DP  RH WIND       PRES   REMARKS
WALHALLA       FAIR      55  52  88 CALM      30.15S
LANGDON        FAIR      54  54 100 CALM      30.16S
CAVALIER       CLOUDY    59  55  88 N6        30.13S
GRAFTON        CLOUDY    61  57  88 N7        30.14R
CANDO          FAIR      54  54 100 N7        30.19R
FORT TOTTEN      N/A     60  53  78 E3        29.95S
ROLLA          FAIR      50  50 100 NW3       30.19S
RUGBY          NOT AVBL
 ***** THE ABOVE OBSERVATIONS ARE NON NWS ARE NOT QUALITY
        CONTROLLED AND MAY MIS-REPORT RAIN FOR SNOW...
$$

 *****  OTHER OBSERVATIONS SOUTHEAST NORTH DAKOTA *****

CITY           SKY/WX    TMP DP  RH WIND       PRES   REMARKS
COOPERSTOWN    NOT AVBL
VALLEY CITY    FAIR      57  57 100 NW6       30.13R
OAKES            N/A    N/A N/A N/A MISG        N/A
GWINNER        FAIR      63  57  82 N10       30.09S
BUFFALO          N/A     61  56  85 N9          N/A
WYNDMERE         N/A    N/A N/A N/A N5          N/A
 ***** THE ABOVE OBSERVATIONS ARE NON NWS ARE NOT QUALITY
       CONTROLLED AND MAY MIS-REPORT RAIN FOR SNOW...
$$

  *****  WEATHER ACROSS NORTHERN MINNESOTA  *****

CITY           SKY/WX    TMP DP  RH WIND       PRES   REMARKS
FLAG ISLAND    CLEAR     61  52  72 E3        30.12S
WARROAD        CLEAR     61  57  88 N6        30.13S
ROSEAU         CLEAR     57  52  82 NE8       30.12F
HALLOCK        PTCLDY    57  55  94 NE6       30.11F
THF RVR FALLS  PTCLDY    62  57  83 NE9       30.11R
HALSTAD          N/A     61  59  92 N5          N/A
FOSSTON        CLOUDY    63  57  82 NE6       30.09S
BAUDETTE       CLEAR     58  53  84 NE7       30.12S
WASKISH        PTCLDY    61  55  82 NE6       30.10S
CROOKSTON      CLOUDY    63  59  88 NE3       30.10R
$$
  *****  WEATHER ACROSS CENTRAL AND WEST MINNESOTA  *****

CITY           SKY/WX    TMP DP  RH WIND       PRES   REMARKS
BEMIDJI        PTCLDY    63  57  82 NE6       30.09R
PARK RAPIDS    PTCLDY    61  59  93 NW3       30.07R
WADENA         PTCLDY    61  61 100 CALM      30.06S
DETROIT LAKES  PTCLDY    64  61  88 CALM      30.08F
MOORHEAD       CLOUDY    61  59  94 N3        30.07S
FERGUS FALLS   CLOUDY    64  64 100 CALM      30.06F
ELBOW LAKE     PTSUNNY   63  62  98 N3        30.05F
MORRIS MN      CLOUDY    61  59  94 NW3       30.04R
STAPLES        MOCLDY    63  61  94 CALM      30.06S
WHEATON        CLOUDY    64  61  88 NW5       30.07S
$$
  *****  WEATHER ELSEWHERE ACROSS MINNESOTA  *****

CITY           SKY/WX    TMP DP  RH WIND       PRES   REMARKS
DULUTH         MOCLDY    58  55  90 N5        30.05F
INTRNTL FALLS  PTCLDY    61  54  77 NE6       30.10F
ELY              N/A     54  52  94 CALM      30.08F FOG
CLOQUET        CLOUDY    57  55  94 NW5       30.07R
BRAINERD       CLOUDY    61  60  97 CALM      30.06R
HIBBING        FOG       52  52 100 CALM      30.08R VSB 1/4
ALEXANDRIA     CLOUDY    64  61  90 NE3       30.06S
SAINT CLOUD    CLOUDY    61  60  97 NE6       30.02F
MINNEAPOLIS    CLOUDY    67  63  87 N10       29.99S
$$

  *****  WEATHER ACROSS SOUTH DAKOTA  *****

CITY           SKY/WX    TMP DP  RH WIND       PRES   REMARKS
SIOUX FALLS    CLOUDY    65  59  81 NE7       30.04S
BROOKINGS      CLOUDY    61  58  90 N6        30.07S
WATERTOWN      CLOUDY    62  57  83 N5        30.08S
HURON          CLOUDY    66  59  78 NE7       30.06F
SISSETON         N/A     62  58  86 NW8       30.06S
ABERDEEN       LGT RAIN  65  59  81 N5        30.10R
MITCHELL       MOCLDY    65  62  90 NW3       30.05F
PIERRE         CLEAR     63  61  93 CALM      30.09S
MOBRIDGE       MOCLDY    67  59  75 S3        30.11R
RAPID CITY     CLOUDY    60  58  92 NE3       30.15F
$$

  *****  SOME WEATHER IN NEARBY STATES *****

CITY           SKY/WX    TMP DP  RH WIND       PRES   REMARKS
GLASGOW MT     MOCLDY    61  58  90 VRB5      30.16S
GREAT FALLS MT CLOUDY    62  50  64 E8        30.22S
CHEYENNE WY    CLEAR     63  57  81 SE10      30.28F
SCOTTSBLUFF NE CLEAR     65  61  87 SE8       30.16R
OMAHA NE       PTCLDY    72  68  87 NW6       29.97S
DES MOINES IA  CLEAR     72  68  87 W3        29.93F
DAVENPORT IA   CLEAR     70  68  93 SW3       29.92F
CHICAGO IL     PTCLDY    73  66  78 SW3       29.92F
EAU CLAIRE WI  CLOUDY    66  65  96 N6        29.96S
LA CROSSE WI   CLOUDY    70  67  90 N5        29.91S
$$

  *****  SOME NATIONAL WEATHER *****

CITY           SKY/WX    TMP DP  RH WIND       PRES   REMARKS
LA GUARDIA NY  PTCLDY    79  73  82 SW3       29.90S
RALEIGH NC     PTCLDY    75  72  90 CALM      29.94S
ATLANTA GA     CLEAR     77  69  76 SW9       30.05F
NEW ORLEANS LA PTCLDY    80  75  84 S5        30.02S
OKLAHOMA CITY  PTCLDY    74  72  93 S3        29.95F
ALBUQUERQUE NM PTCLDY    74  50  42 E10       30.21R
SALT LAKE CITY CLEAR     81  34  18 S8        30.02S
LOS ANGELES CA PTCLDY    71  65  81 W7        29.90S
BOISE ID       CLEAR     75  45  34 SW5       29.98R
SEATTLE WA     CLEAR     73  58  59 NE8       30.12S
$$

*** WEATHER ACROSS MANITOBA...SASKATCHEWAN AND ONTARIO ***
                ***ONTARIO***

CITY           SKY/WX    TMP DP  RH WIND       PRES   REMARKS
GERALDTON      CLEAR     52  50  93 NW2       30.08R
THUNDER BAY    PTCLDY    54  54 100 SW2       30.06S
SIOUX LOOKOUT  CLEAR     52  50  93 VRB2      30.13R
TORONTO        MOCLDY    77  61  57 N6        29.90F
BIG TROUT LK   NOT AVBL
PICKLE LAKE    NOT AVBL
DRYDEN         CLEAR     55  50  82 N6        30.14R
KENORA         MOCLDY    55  52  88 N5        30.15S
$$
                *** MANITOBA***

CITY           SKY/WX    TMP DP  RH WIND       PRES   REMARKS
BRANDON        PTCLDY    50  48  93 N3        30.17F
DAUPHIN        CLEAR     50  48  93 SW8       30.16S
ISLAND LAKE    PTCLDY    57  52  82 S5        30.12S
PILOT MOUND      N/A     54  52  94 N5          N/A
THE PAS        CLOUDY    64  59  82 SW8       30.08F
THOMPSON       MOCLDY    59  52  77 S3        30.06S
WINNIPEG       CLEAR     50  48  93 NW3       30.15F
LYNN LAKE      CLEAR     57  55  94 MISG      30.04F
CHURCHILL      MOCLDY    59  52  77 S9        30.00F
GILLAM         CLEAR     55  46  71 S5        30.07S
$$
                ***SASKATCHEWAN***

CITY           SKY/WX    TMP DP  RH WIND       PRES   REMARKS
ESTEVAN        MOCLDY    57  54  88 E6        30.18S
KINDERSLEY     PTCLDY    59  54  82 SE8       30.17S
LLOYDMINSTER   CLEAR     61  57  88 W6        30.12F
PRINCE ALBERT  PTCLDY    61  55  82 SW5       30.12S
REGINA         CLEAR     57  54  88 SE8       30.19
YORKTON        CLEAR     54  52  94 CALM      30.17S
N. BATTLEFORD  CLEAR     64  52  63 S8        30.15S   C1F1C2F2C3F3C4F4C5F5C6F6C7F7C8F8C9F9CaFaCbFbCcFcCdFdCe!



USA.gov is the U.S. government's official web portal to all federal, state and local government web resources and services.